[[{"header":{"parameterUnit":"m.s-1","parameterCategory":1,"la1":30.2991,"la2":30.254,"lo1":-89.0895,"lo2":-89.0444,"dy":0.0017,"dx":0.0017,"nx":28,"ny":28,"refTime":"2023-08-05T03:00:00:Z","depth":0,"parameterNumber":2,"parameterNumberName":"U-component_of_WINDS"},"data":[0,0,0,0,0,0,0,0,0,0,0,0,0,0,0,0,0,0,0,0,0,0,0,0,0,0,0,0,0,0,0,0,0,0,0,0,0,0,0,0,0,0,0,0,0,0,0,0,0,0,0,0,0,0,0,0,0,0,3.4073,3.4073,0,3.4092,3.4092,3.4092,3.3996,3.3993,3.3991,3.3988,3.401,3.4013,3.4017,0,0,0,0,0,0,0,0,0,0,0,0,0,3.3954,3.3957,3.4073,3.4073,3.4073,3.4092,3.4092,3.4092,3.3997,3.3993,3.399,3.3987,3.4009,3.4013,3.4017,0,0,0,0,0,0,0,0,0,0,0,0,0,3.3993,3.3958,3.4073,3.4028,3.4024,3.4092,3.4092,3.4092,3.3997,3.3993,3.3989,3.3985,3.4008,3.4013,3.4017,3.413,0,0,3.4032,3.4034,0,0,0,0,0,0,0,0,3.3991,3.3997,3.4034,3.4031,3.4027,3.4037,3.4058,3.4105,3.3998,3.4008,3.3988,3.3983,3.4023,3.4026,3.4039,3.4131,3.4132,3.4032,3.4035,3.4037,3.4039,0,0,0,0,0,0,0,3.3988,3.3996,3.408,3.4035,3.403,3.4007,3.4008,3.4067,3.4039,3.4006,3.4,3.4003,3.402,3.4035,3.4039,3.4133,3.4032,3.4037,3.404,3.4041,3.4315,3.4319,0,0,0,0,0,0,3.3991,3.3994,3.408,3.4081,3.3998,3.4012,3.4013,3.4038,3.4038,3.4033,3.4006,3.3998,3.4029,3.4033,3.4039,3.4168,3.4037,3.4042,3.4045,3.431,3.4316,3.432,0,0,0,0,0,0,3.3989,3.4,3.4079,3.4036,3.4044,3.4019,3.4048,3.4041,3.4055,3.4037,3.4032,3.4026,3.4025,3.4033,3.4107,3.4168,3.4044,3.4048,3.4305,3.4312,3.4318,3.4429,0,0,0,0,0,0,3.3986,3.4,3.4042,3.4037,3.4047,3.4147,3.4051,3.4044,3.4063,3.4053,3.4055,3.4051,3.4023,3.4101,3.4112,3.4172,3.4052,3.43,3.4308,3.4316,3.442,3.4439,3.4455,0,0,0,0,0,3.3982,3.4075,3.4045,3.4056,3.4099,3.4151,3.4156,3.412,3.4069,3.4111,3.4099,3.4051,3.416,3.4109,3.4121,3.4184,3.4296,3.4306,3.4315,3.4412,3.4435,3.4455,0,0,0,0,0,0,3.4089,3.4073,3.404,3.4134,3.4144,3.4134,3.4187,3.4147,3.4173,3.4162,3.4118,3.4119,3.4201,3.42,3.4144,3.4291,3.4219,3.4231,3.4288,3.431,3.4327,3.4325,3.4056,0,0,0,0,0,3.4123,3.4166,3.415,3.4234,3.424,3.4213,3.4234,3.4205,3.4215,3.4219,3.4213,3.4224,3.426,3.4286,3.4318,3.442,3.4418,3.4469,3.4486,3.4501,3.4512,3.4562,3.4584,3.4353,3.4353,3.4353,0,0,3.4195,3.4191,3.4221,3.4255,3.4259,3.4304,3.4217,3.4269,3.4301,3.4227,3.4296,3.4292,3.4302,3.439,3.4428,3.4392,3.4575,3.4513,3.4525,3.4528,3.4575,3.4596,3.4616,3.436,3.4358,3.4357,0,0,3.4347,3.435,3.4418,3.4423,3.4431,3.4411,3.4428,3.4424,3.4418,3.4486,3.443,3.4469,3.4533,3.4541,3.4554,3.4706,3.4662,3.4719,3.4809,3.4859,3.4877,3.4893,3.4944,3.4964,3.473,3.473,3.473,0,3.4435,3.4499,3.4458,3.4512,3.4528,3.4461,3.4529,3.4537,3.4556,3.4568,3.4526,3.4603,3.4606,3.4693,3.4729,3.4743,3.4759,3.4717,3.4877,3.4893,3.4907,3.4956,3.4976,3.4737,3.4736,3.4735,3.4735,0,3.4605,3.465,3.4705,3.4721,3.4743,3.4805,3.4773,3.48,3.4769,3.4754,3.4823,3.4823,3.4853,3.4872,3.4844,3.4955,3.4931,3.4885,3.4811,3.4936,3.4981,3.5,3.4746,3.4744,3.4742,3.474,0,0,3.4825,3.4817,3.4837,3.4842,3.4845,3.4879,3.4936,3.4964,3.4987,3.5002,3.5047,3.5102,3.5058,3.5072,3.5044,3.5088,3.5205,3.5035,3.5035,3.5065,3.5324,3.5357,3.538,3.5176,3.518,3.5183,3.5322,0,3.4971,3.5067,3.5031,3.513,3.517,3.5106,3.5156,3.5162,3.515,3.5182,3.5168,3.5206,3.5146,3.5154,3.5195,3.5182,3.5256,3.5172,3.5217,3.522,3.5214,3.5403,3.544,3.5571,3.534,3.5343,3.5345,0,3.5155,3.5174,3.5276,3.5268,3.5283,3.5329,3.5349,3.5381,3.5387,3.5374,3.5389,3.5351,3.5406,3.5333,3.5407,3.5351,3.5367,3.5364,3.5368,3.5369,3.5288,3.5407,3.5613,3.5631,3.5373,3.537,3.5368,0,3.5301,3.5353,3.542,3.5427,3.542,3.5453,3.5452,3.5453,3.5471,3.549,3.55,3.5527,3.554,3.5561,3.553,3.5481,3.5608,3.5534,3.5598,3.5599,3.5626,3.5625,3.5835,3.5642,3.5641,3.5641,3.5641,0,3.5467,3.5531,3.5485,3.5526,3.5595,3.5553,3.5623,3.5615,3.5617,3.5654,3.5603,3.5639,3.5597,3.563,3.5607,3.567,3.5678,3.5668,3.5661,3.5672,3.5672,3.568,3.5669,3.5646,3.5645,3.5644,3.5643,0,3.5642,3.5614,3.5681,3.5669,3.5667,3.5718,3.5707,3.5744,3.5727,3.5775,3.5784,3.5758,3.5794,3.5765,3.5801,3.5785,3.5868,3.5849,3.5865,3.5859,3.5924,3.5917,3.6145,3.6171,3.5964,3.5966,3.5967,0,3.5748,3.5796,3.5787,3.5807,3.5809,3.5844,3.586,3.5821,3.5841,3.5849,3.5885,3.5916,3.5938,3.5997,3.5982,3.6008,3.5988,3.6065,3.5991,3.5999,3.5985,3.5982,3.5985,3.608,3.6082,3.6084,3.6086,0,3.5939,3.5922,3.5948,3.5968,3.599,3.6005,3.6015,3.6036,3.5995,3.602,3.6054,3.6071,3.6106,3.6136,3.6157,3.6156,3.6114,3.611,3.6125,3.6136,3.6142,3.6136,3.5903,3.6104,3.6102,3.6101,3.61,3.6099,3.6081,3.6118,3.6117,3.6147,3.615,3.6161,3.6194,3.618,3.6207,3.6231,3.6206,3.6248,3.625,3.6273,3.6277,3.6308,3.6276,3.63,3.6305,3.6311,3.6319,3.6139,3.6312,3.6312,3.6311,3.6311,3.631,0,3.6266,3.6261,3.6289,3.6304,3.6327,3.6285,3.6294,3.6316,3.6352,3.6358,3.638,3.6418,3.6447,3.6433,3.6458,3.6485,3.6467,3.6493,3.6489,3.6489,3.6348,3.633,3.6508,3.6508,3.6507,3.6507,3.6507,3.6507,3.6365,3.6425,3.6408,3.6469,3.6464,3.6502,3.651,3.652,3.6523,3.6567,3.659,3.658,3.6577,3.6601,3.6625,3.662,3.6631,3.6664,3.6652,3.6519,3.65,3.6481,3.6464,3.6667,3.6667,3.679,3.6791,3.6792]},{"header":{"parameterUnit":"m.s-1","parameterCategory":1,"la1":30.2991,"la2":30.254,"lo1":-89.0895,"lo2":-89.0444,"dy":0.0017,"dx":0.0017,"nx":28,"ny":28,"refTime":"2023-08-05T03:00:00:Z","depth":0,"parameterNumber":3,"parameterNumberName":"V-component_of_WINDS"},"data":[0,0,0,0,0,0,0,0,0,0,0,0,0,0,0,0,0,0,0,0,0,0,0,0,0,0,0,0,0,0,0,0,0,0,0,0,0,0,0,0,0,0,0,0,0,0,0,0,0,0,0,0,0,0,0,0,0,0,3.5537,3.5537,0,3.5583,3.5584,3.5584,3.5553,3.5551,3.555,3.5549,3.5592,3.5594,3.5597,0,0,0,0,0,0,0,0,0,0,0,0,0,3.5416,3.5419,3.5537,3.5537,3.5538,3.5583,3.5584,3.5585,3.5553,3.5551,3.555,3.5548,3.5591,3.5594,3.5597,0,0,0,0,0,0,0,0,0,0,0,0,0,3.5466,3.5419,3.5537,3.5528,3.5528,3.5583,3.5584,3.5585,3.5553,3.5551,3.5549,3.5547,3.559,3.5594,3.5597,3.5663,0,0,3.5609,3.561,0,0,0,0,0,0,0,0,3.5463,3.5471,3.5529,3.5529,3.5528,3.556,3.5557,3.5611,3.5554,3.5543,3.5549,3.5546,3.5583,3.5587,3.56,3.5665,3.5667,3.5609,3.5611,3.5613,3.5614,0,0,0,0,0,0,0,3.546,3.5468,3.5555,3.5529,3.5529,3.552,3.5525,3.5567,3.5574,3.5544,3.5542,3.5548,3.5582,3.5597,3.5601,3.5667,3.5609,3.5612,3.5614,3.5616,3.5786,3.5789,0,0,0,0,0,0,3.5458,3.5466,3.5554,3.5556,3.549,3.5524,3.5529,3.5552,3.5574,3.5575,3.555,3.5547,3.5591,3.5597,3.5602,3.5679,3.5613,3.5616,3.5618,3.5784,3.5787,3.5789,0,0,0,0,0,0,3.5455,3.5466,3.5552,3.5511,3.5521,3.5528,3.5554,3.5554,3.5568,3.5578,3.5579,3.5564,3.559,3.5597,3.5648,3.568,3.5618,3.5621,3.5781,3.5785,3.5788,3.5834,0,0,0,0,0,0,3.5452,3.5465,3.5491,3.5511,3.5523,3.5598,3.5556,3.5557,3.5576,3.5571,3.5591,3.5592,3.5589,3.5643,3.5652,3.5684,3.5624,3.5778,3.5783,3.5787,3.583,3.5839,3.5846,0,0,0,0,0,3.5448,3.5502,3.5493,3.5504,3.5556,3.56,3.5607,3.5602,3.5578,3.5604,3.561,3.5592,3.5676,3.5648,3.5658,3.5692,3.5776,3.5782,3.5787,3.5826,3.5837,3.5846,0,0,0,0,0,0,3.5484,3.5504,3.5495,3.5557,3.5577,3.5595,3.5626,3.5614,3.5641,3.5636,3.5628,3.5633,3.5686,3.5694,3.5663,3.5756,3.5722,3.5729,3.5748,3.5759,3.5767,3.5763,3.5627,0,0,0,0,0,3.5499,3.5535,3.555,3.5603,3.5614,3.5619,3.5638,3.5633,3.5653,3.5661,3.5671,3.569,3.572,3.574,3.5769,3.5831,3.5834,3.586,3.5868,3.5875,3.5881,3.5913,3.5924,3.5806,3.5806,3.5806,0,0,3.5531,3.5546,3.5569,3.5611,3.5626,3.5661,3.5626,3.5665,3.5691,3.5666,3.5715,3.5723,3.5743,3.58,3.5826,3.5809,3.5914,3.5881,3.5887,3.5889,3.5919,3.593,3.594,3.581,3.5809,3.5809,0,0,3.5606,3.5622,3.5668,3.5684,3.5708,3.5711,3.5722,3.5742,3.5746,3.5795,3.5778,3.5807,3.586,3.5875,3.589,3.5971,3.5955,3.5981,3.6023,3.6055,3.6064,3.6072,3.6099,3.611,3.5987,3.5987,3.5987,0,3.5641,3.5695,3.5692,3.5733,3.5751,3.5733,3.5778,3.5793,3.5825,3.5837,3.5818,3.5884,3.5897,3.5956,3.5976,3.5989,3.6,3.5977,3.6063,3.6071,3.6079,3.6105,3.6115,3.599,3.599,3.5989,3.5989,0,3.5737,3.5775,3.5809,3.5841,3.5863,3.5906,3.5908,3.593,3.5924,3.5928,3.5977,3.5992,3.6023,3.6037,3.6031,3.6095,3.6084,3.6065,3.603,3.6093,3.6117,3.6127,3.5994,3.5993,3.5992,3.5991,0,0,3.5835,3.5866,3.5878,3.5892,3.5917,3.5945,3.5986,3.6018,3.6037,3.6059,3.6092,3.6138,3.612,3.6137,3.6132,3.616,3.6221,3.6137,3.6137,3.615,3.6291,3.6304,3.6316,3.6212,3.6213,3.6215,3.6289,0,3.591,3.5983,3.5982,3.6049,3.6083,3.6066,3.6102,3.612,3.6125,3.6153,3.6159,3.619,3.6166,3.6175,3.6202,3.6208,3.6249,3.6203,3.624,3.6241,3.6234,3.6329,3.6343,3.6412,3.6298,3.63,3.6301,0,3.6007,3.6034,3.6105,3.6125,3.6139,3.6171,3.6199,3.6227,3.6248,3.6249,3.6268,3.6259,3.6299,3.6265,3.6319,3.6288,3.6303,3.6308,3.6311,3.6312,3.6274,3.6331,3.6434,3.6443,3.6316,3.6315,3.6314,0,3.6068,3.6123,3.6172,3.6185,3.621,3.6232,3.6243,3.6262,3.6281,3.6305,3.6317,3.6346,3.6361,3.6382,3.638,3.6356,3.6435,3.6401,3.6436,3.6436,3.6451,3.645,3.6556,3.6465,3.6464,3.6464,3.6464,0,3.6151,3.6195,3.62,3.623,3.6278,3.6276,3.6322,3.6331,3.6348,3.6378,3.6365,3.6394,3.639,3.6419,3.6417,3.6461,3.6469,3.647,3.6468,3.647,3.6469,3.6478,3.6473,3.6467,3.6466,3.6466,3.6465,0,3.6227,3.6233,3.6285,3.6305,3.6311,3.6345,3.6361,3.6389,3.6394,3.6432,3.6441,3.6447,3.648,3.6481,3.6518,3.6517,3.657,3.6564,3.6563,3.6562,3.6596,3.6592,3.6709,3.6724,3.6625,3.6626,3.6627,0,3.6279,3.6312,3.6336,3.6356,3.6369,3.6401,3.6421,3.642,3.644,3.6466,3.649,3.6522,3.6547,3.6599,3.6606,3.6634,3.6628,3.6667,3.6632,3.6632,3.6626,3.6624,3.6626,3.6673,3.6675,3.6675,3.6676,0,3.6369,3.637,3.6399,3.643,3.6454,3.6478,3.65,3.6516,3.6518,3.6541,3.6575,3.6595,3.6633,3.6664,3.6691,3.6701,3.6688,3.6688,3.6697,3.6697,3.6695,3.6695,3.658,3.6684,3.6684,3.6683,3.6683,3.6682,3.6432,3.6461,3.6482,3.6515,3.6532,3.6553,3.658,3.6589,3.6617,3.6649,3.6647,3.6684,3.6702,3.6738,3.675,3.6778,3.6764,3.6778,3.6781,3.6784,3.6787,3.6692,3.6783,3.6783,3.6783,3.6782,3.6782,0,3.652,3.6533,3.6564,3.6596,3.6621,3.661,3.6634,3.6655,3.6688,3.6708,3.6733,3.6771,3.6801,3.6812,3.684,3.6861,3.6855,3.6868,3.6865,3.6867,3.6798,3.6787,3.6872,3.6872,3.6872,3.6872,3.6871,3.6871,3.6569,3.6616,3.662,3.6675,3.6687,3.6724,3.6739,3.6757,3.6773,3.6817,3.6842,3.6849,3.6864,3.6894,3.6921,3.6923,3.6933,3.6947,3.6947,3.6882,3.6872,3.6864,3.6853,3.695,3.695,3.7014,3.7014,3.7015]}]]